Location: Schommer Observatory
(40.5200°N, 74.4500°W)
Time: 13:42:35
(UTC-04:00)

Amateur Radio Satellites - All Passes

Search period start: 28 March 2017 13:12
Search period end: 29 March 2017 13:12
Location: Schommer Observatory, 40.5200°N, 74.4500°W

Satellite Date Start Highest point End Downlink Frequencies (MHz)
Time Altitude Azimuth
50 SAT 28 Mar 13:20:28 13:23:56 54° 101° (E) 13:27:23 437.505
Gurwin Techsat 1B 28 Mar 13:24:49 13:29:43 39° 69° (ENE) 13:34:38 435.225
NO-84 28 Mar 13:28:59 13:32:05 58° 40° (NE) 13:35:27 435.350 FM
SPROUT 28 Mar 13:29:23 13:33:42 85° 282° (WNW) 13:37:57 437.525
ESTCUBE 1 28 Mar 13:34:00 13:37:29 22° 293° (WNW) 13:40:59 437.505/2401.250
RS-15 28 Mar 13:38:27 13:50:28 74° 305° (NW) 14:02:55 29.354- 29.394
SO-50 28 Mar 13:59:56 14:04:00 30° 114° (ESE) 14:08:02 436.795
DX 1 28 Mar 14:06:51 14:11:15 75° 286° (WNW) 14:15:37 434.975-435.025
Oscar 19 28 Mar 14:34:07 14:38:25 27° 265° (W) 14:42:45 437.125/150
VELOX 1 28 Mar 14:38:06 14:40:48 16° 296° (WNW) 14:43:30 145.980
UKube-1 28 Mar 14:42:56 14:47:01 42° 289° (WNW) 14:51:05 .
ITAMSAT 1 28 Mar 14:45:45 14:50:31 38° 69° (ENE) 14:55:19 435.822/435.867
AO-7 28 Mar 14:52:41 15:00:38 52° 64° (ENE) 15:08:35 .
Gurwin Techsat 1B 28 Mar 15:05:22 15:09:44 26° 265° (W) 15:14:09 435.225
NO-84 28 Mar 15:07:50 15:09:22 13° 234° (SW) 15:10:58 435.350 FM
MOZHAYETS 4 28 Mar 15:35:07 15:38:30 20° 94° (E) 15:41:51
BEESAT 28 Mar 15:36:16 15:40:54 49° 100° (E) 15:45:29 436.000
SO-50 28 Mar 15:40:15 15:44:24 32° 311° (NW) 15:48:31 436.795
ITUPSAT 1 28 Mar 15:53:54 15:58:40 74° 103° (ESE) 16:03:23 437.325
RS-15 28 Mar 15:55:24 16:05:36 29° 334° (NNW) 16:15:56 29.354- 29.394
ITAMSAT 1 28 Mar 16:25:42 16:30:02 26° 265° (W) 16:34:24 435.822/435.867
O/OREOS (USA 219) 28 Mar 16:33:25 16:37:45 48° 107° (ESE) 16:42:09 437.305
CUBESAT XI-V 28 Mar 16:33:49 16:36:17 14° 91° (E) 16:38:44 437.345
KKS-1 28 Mar 16:37:29 16:40:40 19° 93° (E) 16:43:49 437.445
DOVE 4 28 Mar 16:41:49 16:43:26 12° 59° (ENE) 16:45:04 437.250
PCSat 28 Mar 16:43:51 16:44:21 10° 35° (NE) 16:44:52 145.827
AO-7 28 Mar 16:46:09 16:53:35 35° 262° (W) 17:01:03 .
CUTE-I 28 Mar 16:53:57 16:56:17 13° 59° (ENE) 16:58:37 437.470
LilacSat-2 28 Mar 17:04:27 17:04:46 10° 64° (ENE) 17:05:04 437.200
STARS 28 Mar 17:07:40 17:10:35 17° 93° (E) 17:13:29 437.465
MOZHAYETS 4 28 Mar 17:11:34 17:15:45 38° 289° (WNW) 17:19:57
BEESAT 28 Mar 17:15:06 17:18:17 18° 296° (WNW) 17:21:27 436.000
NUDT-PHONESAT 28 Mar 17:17:11 17:18:07 11° 65° (ENE) 17:19:03 437.300
XW-2D 28 Mar 17:23:59 17:26:32 17° 68° (ENE) 17:29:04 145.860 - 145.880
KAITUO 1B 28 Mar 17:26:10 17:28:10 14° 67° (ENE) 17:30:11 145.475/437.950
XW-2B 28 Mar 17:29:44 17:32:30 19° 68° (ENE) 17:35:15 145.730 - 145.750
ITUPSAT 1 28 Mar 17:33:50 17:35:51 13° 299° (WNW) 17:37:51 437.325
XW-2C 28 Mar 17:39:33 17:42:43 25° 70° (ENE) 17:45:53 145.795 - 145.815
YUBILEINY 28 Mar 17:41:57 17:48:56 26° 67° (ENE) 17:55:52 435.215
CUBESAT XI-V 28 Mar 18:09:25 18:13:59 56° 286° (WNW) 18:18:34 437.345
KKS-1 28 Mar 18:13:11 18:17:22 39° 289° (WNW) 18:21:31 437.445
O/OREOS (USA 219) 28 Mar 18:14:18 18:17:26 18° 305° (NW) 18:20:36 437.305
RS-15 28 Mar 18:14:47 18:23:54 23° 9° (N) 18:32:54 29.354- 29.394
DOVE 4 28 Mar 18:15:32 18:20:15 85° 259° (W) 18:25:18 437.250
M-CUBED/EXP-1 PRIME 28 Mar 18:19:51 18:21:42 12° 95° (E) 18:23:33 437.505
HO-68 28 Mar 18:22:43 18:28:30 28° 60° (ENE) 18:34:16 435.675
PCSat 28 Mar 18:23:45 18:29:04 51° 57° (ENE) 18:34:20 145.827
XW-2A 28 Mar 18:26:22 18:27:28 11° 66° (ENE) 18:28:34 145.665 - 145.685
XW-2F 28 Mar 18:29:10 18:32:56 77° 257° (WSW) 18:36:44 145.980 - 146.000
CUTE-I 28 Mar 18:30:09 18:35:32 88° 255° (WSW) 18:40:57 437.470
LilacSat-2 28 Mar 18:34:44 18:38:31 59° 259° (W) 18:42:18 437.200
SEEDS 28 Mar 18:39:10 18:39:45 10° 63° (ENE) 18:40:20 437.485
STARS 28 Mar 18:42:56 18:47:06 42° 289° (WNW) 18:51:15 437.465
CUTE 1.7 + AOD 2 28 Mar 18:47:41 18:50:46 20° 68° (ENE) 18:53:53 437.475
NUDT-PHONESAT 28 Mar 18:47:55 18:51:34 52° 260° (W) 18:55:14 437.300
CUBEBUG 2 28 Mar 18:54:57 18:57:19 14° 63° (ENE) 18:59:40 437.445
XW-2D 28 Mar 18:57:04 19:00:29 31° 263° (W) 19:03:54 145.860 - 145.880
KAITUO 1B 28 Mar 18:58:22 19:01:52 38° 262° (W) 19:05:23 145.475/437.950
XW-2B 28 Mar 19:03:14 19:06:31 27° 264° (W) 19:09:48 145.730 - 145.750
XW-2C 28 Mar 19:13:59 19:16:53 21° 266° (W) 19:19:47 145.795 - 145.815
Tancredo 1 28 Mar 19:22:46 19:25:10 20° 133° (SE) 19:27:35 437.200
ISS 28 Mar 19:33:07 19:35:46 23° 133° (SE) 19:38:26 437.550
YUBILEINY 28 Mar 19:37:50 19:46:26 68° 267° (W) 19:55:03 435.215
AO-85 28 Mar 19:42:23 19:45:27 18° 112° (ESE) 19:48:23 145.980
AAUSAT CUBESAT 2 28 Mar 19:48:41 19:52:15 29° 70° (ENE) 19:55:50 437.432
UWE-3 28 Mar 19:50:42 19:54:46 30° 70° (ENE) 19:58:46 435.000/436.395/437.385
M-CUBED/EXP-1 PRIME 28 Mar 19:51:52 19:56:31 72° 290° (WNW) 20:01:09 437.505
XW-2A 28 Mar 19:56:34 19:59:51 41° 261° (W) 20:03:08 145.665 - 145.685
STRAND 1 28 Mar 19:56:59 20:01:49 41° 99° (E) 20:06:36 437.568
PCSat 28 Mar 20:07:59 20:12:04 22° 254° (WSW) 20:16:07 145.827
HO-68 28 Mar 20:08:43 20:15:44 60° 258° (WSW) 20:22:48 435.675
SEEDS 28 Mar 20:10:42 20:14:50 70° 259° (WSW) 20:19:00 437.485
Oscar 11 28 Mar 20:14:55 20:18:22 24° 68° (ENE) 20:21:48 .
CUTE-I 28 Mar 20:15:55 20:16:17 10° 272° (W) 20:16:39 437.470
CUTE 1.7 + AOD 2 28 Mar 20:22:35 20:26:23 33° 263° (W) 20:30:12 437.475
ZACube-1 28 Mar 20:25:51 20:30:07 41° 72° (ENE) 20:34:19 437.345
CUBEBUG 2 28 Mar 20:28:38 20:33:22 67° 259° (W) 20:38:05 437.445
RS-15 28 Mar 20:29:10 20:40:53 45° 42° (NE) 20:52:05 29.354- 29.394
DELFI C3 28 Mar 20:48:10 20:50:25 15° 66° (ENE) 20:52:42 145.870
AO-73 28 Mar 20:52:33 20:57:03 74° 77° (ENE) 21:01:30 145.935
Tancredo 1 28 Mar 20:58:05 21:01:06 41° 330° (NNW) 21:04:08 437.200
ISS 28 Mar 21:09:01 21:12:06 39° 330° (NNW) 21:15:12 437.550
AO-85 28 Mar 21:21:23 21:25:35 43° 306° (NW) 21:29:33 145.980
AAUSAT CUBESAT 2 28 Mar 21:24:37 21:27:43 21° 266° (W) 21:30:51 437.432
UWE-3 28 Mar 21:27:16 21:31:10 26° 265° (W) 21:35:03 435.000/436.395/437.385
STRAND 1 28 Mar 21:36:43 21:40:44 24° 295° (WNW) 21:44:44 437.568
YUBILEINY 28 Mar 21:39:13 21:41:27 11° 287° (WNW) 21:43:41 435.215
Oscar 11 28 Mar 21:50:34 21:54:21 29° 264° (W) 21:58:07 .
ZACube-1 28 Mar 22:03:22 22:06:31 18° 267° (W) 22:09:39 437.345
BEESAT 3 28 Mar 22:14:26 22:18:19 77° 120° (ESE) 22:22:18 437.485
TIGRISAT 28 Mar 22:16:34 22:19:50 20° 93° (E) 22:23:02 435.000
DELFI C3 28 Mar 22:21:12 22:24:52 39° 262° (W) 22:28:35 145.870
UNISAT 6 28 Mar 22:27:05 22:30:54 28° 96° (E) 22:34:38 437.425
PRISM 28 Mar 22:28:41 22:32:49 60° 101° (ESE) 22:36:56 437.425
SO-50 28 Mar 22:31:20 22:35:09 26° 47° (NE) 22:38:56 436.795
FO-29 28 Mar 22:35:26 22:39:57 23° 91° (E) 22:44:09 435.910
BEESAT 2 28 Mar 22:35:42 22:39:30 49° 117° (ESE) 22:43:22 435.950
Tancredo 1 28 Mar 22:36:12 22:37:52 13° 348° (NNW) 22:39:33 437.200
RS-15 28 Mar 22:42:00 22:53:57 63° 247° (WSW) 23:05:21 29.354- 29.394
ISS 28 Mar 22:47:29 22:49:16 14° 349° (N) 22:51:03 437.550
ESTCUBE 1 28 Mar 22:55:56 22:59:49 30° 69° (ENE) 23:03:44 437.505/2401.250
LO-87 28 Mar 23:10:11 23:13:46 84° 77° (ENE) 23:17:25 145.935 - 145.965
AIST 2D 28 Mar 23:43:23 23:46:16 24° 96° (E) 23:49:08 435.315
TIGRISAT 28 Mar 23:52:39 23:56:36 34° 290° (WNW) 00:00:28 435.000
50 SAT 28 Mar 23:54:15 23:56:46 19° 69° (ENE) 23:59:18 437.505
BEESAT 3 28 Mar 23:54:38 23:56:26 13° 319° (NW) 23:58:16 437.485
NANOSAT C BR1 28 Mar 23:56:08 23:59:09 19° 94° (E) 00:02:08 145.865
VELOX 1 28 Mar 23:57:04 00:01:13 42° 71° (ENE) 00:05:24 145.980
EO-79 29 Mar 00:02:00 00:05:28 24° 95° (E) 00:08:53 145.935-145.965
UKube-1 29 Mar 00:02:46 00:05:07 14° 63° (ENE) 00:07:27 .
UNISAT 6 29 Mar 00:03:56 00:07:29 24° 292° (WNW) 00:10:58 437.425
PRISM 29 Mar 00:05:57 00:07:34 12° 297° (WNW) 00:09:13 437.425
SO-50 29 Mar 00:11:33 00:15:39 36° 245° (WSW) 00:19:46 436.795
Tancredo 1 29 Mar 00:13:35 00:15:04 12° 9° (N) 00:16:32 437.200
BEESAT 2 29 Mar 00:14:50 00:17:32 17° 315° (NW) 00:20:16 435.950
FO-29 29 Mar 00:19:47 00:25:21 44° 292° (WNW) 00:30:25 435.910
SPROUT 29 Mar 00:21:50 00:26:07 68° 74° (ENE) 00:30:24 437.525
ISS 29 Mar 00:25:04 00:26:49 14° 10° (N) 00:28:34 437.550
POLYITAN 1 29 Mar 00:30:26 00:34:34 51° 100° (E) 00:38:40 437.675
ESTCUBE 1 29 Mar 00:32:59 00:36:36 24° 265° (W) 00:40:17 437.505/2401.250
QB50P2 29 Mar 00:35:09 00:39:22 64° 101° (ESE) 00:43:32 145.880/145.840
DUCHIFAT 1 29 Mar 00:43:19 00:47:29 59° 100° (E) 00:51:36 145.980
BUGSAT 1 29 Mar 00:49:35 00:52:51 22° 94° (E) 00:56:03 437.445
RS-15 29 Mar 01:00:01 01:03:38 12° 267° (W) 01:07:14 29.354- 29.394
DX 1 29 Mar 01:01:32 01:05:52 89° 72° (ENE) 01:10:15 434.975-435.025
O/OREOS (USA 219) 29 Mar 01:07:07 01:08:05 11° 50° (NE) 01:09:02 437.305
Oscar 19 29 Mar 01:08:11 01:10:12 12° 90° (E) 01:12:12 437.125/150
AIST 2D 29 Mar 01:16:53 01:19:19 18° 291° (WNW) 01:21:46 435.315
50 SAT 29 Mar 01:26:55 01:29:40 22° 264° (W) 01:32:26 437.505
NANOSAT C BR1 29 Mar 01:31:07 01:34:56 34° 289° (WNW) 01:38:45 145.865
VELOX 1 29 Mar 01:34:55 01:37:50 17° 267° (W) 01:40:47 145.980
UKube-1 29 Mar 01:36:29 01:40:40 52° 259° (W) 01:44:55 .
EO-79 29 Mar 01:37:35 01:41:11 27° 291° (WNW) 01:44:45 145.935-145.965
Gurwin Techsat 1B 29 Mar 01:42:33 01:45:39 16° 91° (E) 01:48:45 435.225
Tancredo 1 29 Mar 01:48:59 01:51:55 32° 28° (NNE) 01:54:51 437.200
ISS 29 Mar 02:00:54 02:04:00 37° 29° (NNE) 02:07:06 437.550
SPROUT 29 Mar 02:02:15 02:02:27 10° 271° (W) 02:02:38 437.525
POLYITAN 1 29 Mar 02:07:42 02:09:55 14° 296° (WNW) 02:12:06 437.675
QB50P2 29 Mar 02:13:06 02:14:36 12° 297° (WNW) 02:16:05 145.880/145.840
DUCHIFAT 1 29 Mar 02:20:55 02:22:38 12° 297° (WNW) 02:24:20 145.980
BUGSAT 1 29 Mar 02:24:36 02:28:12 29° 291° (WNW) 02:31:45 437.445
MOZHAYETS 4 29 Mar 02:36:52 02:40:08 20° 66° (ENE) 02:43:24
BEESAT 29 Mar 02:42:00 02:46:40 55° 72° (ENE) 02:51:20 436.000
O/OREOS (USA 219) 29 Mar 02:43:35 02:48:13 87° 72° (ENE) 02:52:48 437.305
Oscar 19 29 Mar 02:44:52 02:50:03 77° 285° (WNW) 02:55:13 437.125/150
AO-7 29 Mar 02:57:01 03:01:14 15° 89° (E) 03:05:24 .
ITUPSAT 1 29 Mar 02:59:56 03:04:43 82° 75° (ENE) 03:09:32 437.325
ITAMSAT 1 29 Mar 03:00:40 03:03:00 13° 90° (E) 03:05:18 435.822/435.867
Gurwin Techsat 1B 29 Mar 03:20:45 03:26:01 64° 288° (WNW) 03:31:16 435.225
Tancredo 1 29 Mar 03:25:11 03:27:59 28° 225° (SW) 03:30:47 437.200
KKS-1 29 Mar 03:35:29 03:38:28 18° 64° (ENE) 03:41:26 437.445
CUBESAT XI-V 29 Mar 03:37:19 03:39:40 14° 63° (ENE) 03:42:01 437.345
ISS 29 Mar 03:37:35 03:40:22 25° 226° (SW) 03:43:10 437.550
STARS 29 Mar 04:04:19 04:06:58 16° 64° (ENE) 04:09:38 437.465
MOZHAYETS 4 29 Mar 04:12:39 04:16:59 41° 262° (W) 04:21:20
AO-85 29 Mar 04:13:26 04:15:44 15° 44° (NE) 04:18:03 145.980
BEESAT 29 Mar 04:22:00 04:24:46 15° 268° (W) 04:27:32 436.000
ITAMSAT 1 29 Mar 04:37:47 04:42:59 73° 286° (WNW) 04:48:08 435.822/435.867
AO-7 29 Mar 04:46:48 04:55:09 80° 107° (ESE) 05:03:27 .
M-CUBED/EXP-1 PRIME 29 Mar 05:05:47 05:07:24 12° 56° (NE) 05:09:02 437.505
KKS-1 29 Mar 05:10:23 05:14:39 45° 261° (W) 05:18:58 437.445
CUBESAT XI-V 29 Mar 05:11:59 05:16:31 61° 259° (W) 05:21:04 437.345
STARS 29 Mar 05:38:35 05:42:53 50° 260° (W) 05:47:13 437.465
AO-85 29 Mar 05:52:34 05:56:26 57° 241° (WSW) 06:00:26 145.980
XW-2F 29 Mar 06:04:10 06:05:00 11° 91° (E) 06:05:48 145.980 - 146.000
LilacSat-2 29 Mar 06:09:36 06:11:40 14° 92° (E) 06:13:43 437.200
DOVE 4 29 Mar 06:15:01 06:19:40 30° 94° (E) 06:24:12 437.250
NUDT-PHONESAT 29 Mar 06:20:05 06:22:04 14° 92° (E) 06:24:03 437.300
NO-84 29 Mar 06:24:16 06:27:10 89° 311° (NW) 06:30:01 435.350 FM
XW-2D 29 Mar 06:29:57 06:33:04 24° 96° (E) 06:36:10 145.860 - 145.880
KAITUO 1B 29 Mar 06:30:25 06:33:07 19° 94° (E) 06:35:49 145.475/437.950
BEESAT 3 29 Mar 06:31:39 06:35:27 38° 53° (NE) 06:39:12 437.485
XW-2B 29 Mar 06:35:51 06:39:06 28° 96° (E) 06:42:21 145.730 - 145.750
M-CUBED/EXP-1 PRIME 29 Mar 06:37:33 06:41:14 59° 254° (WSW) 06:45:15 437.505
AO-7 29 Mar 06:40:49 06:47:02 24° 306° (NW) 06:53:15 .
YUBILEINY 29 Mar 06:43:03 06:50:13 30° 83° (E) 06:57:21 435.215
XW-2C 29 Mar 06:45:58 06:49:29 38° 98° (E) 06:52:59 145.795 - 145.815
CUTE-I 29 Mar 06:47:52 06:52:50 38° 98° (E) 06:57:45 437.470
BEESAT 2 29 Mar 06:53:50 06:57:22 27° 49° (NE) 07:00:51 435.950
STRAND 1 29 Mar 07:12:15 07:17:18 57° 72° (ENE) 07:22:20 437.568
XW-2A 29 Mar 07:20:45 07:21:45 11° 92° (E) 07:22:44 145.665 - 145.685
XW-2F 29 Mar 07:35:48 07:39:25 47° 286° (WNW) 07:42:59 145.980 - 146.000
HO-68 29 Mar 07:37:15 07:43:15 28° 95° (E) 07:49:12 435.675
LilacSat-2 29 Mar 07:42:36 07:46:05 36° 288° (WNW) 07:49:32 437.200
DOVE 4 29 Mar 07:52:33 07:57:17 34° 291° (WNW) 08:01:55 437.250
NUDT-PHONESAT 29 Mar 07:52:46 07:56:07 34° 288° (WNW) 07:59:28 437.300
SEEDS 29 Mar 07:55:32 07:58:34 19° 93° (E) 08:01:36 437.485
KAITUO 1B 29 Mar 08:04:02 08:07:07 26° 290° (WNW) 08:10:12 145.475/437.950
NO-84 29 Mar 08:04:02 08:05:06 11° 336° (NNW) 08:06:09 435.350 FM
XW-2D 29 Mar 08:04:17 08:07:08 21° 291° (WNW) 08:09:58 145.860 - 145.880
CUTE 1.7 + AOD 2 29 Mar 08:07:17 08:11:16 40° 98° (E) 08:15:16 437.475
BEESAT 3 29 Mar 08:09:57 08:12:46 18° 249° (WSW) 08:15:33 437.485
XW-2B 29 Mar 08:10:28 08:13:07 19° 292° (WNW) 08:15:45 145.730 - 145.750
CUBEBUG 2 29 Mar 08:20:39 08:24:16 25° 94° (E) 08:27:46 437.445
XW-2C 29 Mar 08:21:19 08:23:22 14° 294° (WNW) 08:25:22 145.795 - 145.815
CUTE-I 29 Mar 08:28:14 08:32:41 28° 294° (WNW) 08:37:07 437.470
BEESAT 2 29 Mar 08:31:37 08:35:04 27° 247° (WSW) 08:38:30 435.950
YUBILEINY 29 Mar 08:37:51 08:46:25 59° 282° (WNW) 08:55:02 435.215
AO-73 29 Mar 08:42:43 08:44:44 13° 91° (E) 08:46:44 145.935
FO-29 29 Mar 08:47:55 08:52:00 16° 57° (ENE) 08:55:56 435.910
XW-2A 29 Mar 08:51:33 08:54:41 35° 287° (WNW) 08:57:46 145.665 - 145.685
STRAND 1 29 Mar 08:53:35 08:56:48 17° 268° (W) 09:00:04 437.568
PCSat 29 Mar 09:04:50 09:10:02 50° 113° (ESE) 09:15:16 145.827
AAUSAT CUBESAT 2 29 Mar 09:05:41 09:09:48 59° 100° (E) 09:13:54 437.432
TIGRISAT 29 Mar 09:14:46 09:18:06 20° 66° (ENE) 09:21:25 435.000
UWE-3 29 Mar 09:16:32 09:20:48 66° 101° (E) 09:24:57 435.000/436.395/437.385
PRISM 29 Mar 09:17:27 09:21:14 39° 72° (ENE) 09:25:04 437.425
HO-68 29 Mar 09:24:18 09:31:15 55° 292° (WNW) 09:38:11 435.675
UNISAT 6 29 Mar 09:25:12 09:29:06 27° 68° (ENE) 09:32:58 437.425
SEEDS 29 Mar 09:30:32 09:34:19 34° 289° (WNW) 09:38:06 437.485
Oscar 11 29 Mar 09:37:24 09:41:35 49° 99° (E) 09:45:45 .
CUTE 1.7 + AOD 2 29 Mar 09:44:01 09:46:47 17° 294° (WNW) 09:49:33 437.475
ZACube-1 29 Mar 09:50:28 09:54:42 88° 289° (WNW) 09:58:50 437.345
CUBEBUG 2 29 Mar 09:57:09 10:00:50 27° 291° (WNW) 10:04:24 437.445
DELFI C3 29 Mar 09:58:43 10:02:01 24° 95° (E) 10:05:17 145.870
AO-73 29 Mar 10:17:14 10:21:16 47° 287° (WNW) 10:25:13 145.935
FO-29 29 Mar 10:28:13 10:36:00 75° 73° (ENE) 10:43:14 435.910
AAUSAT CUBESAT 2 29 Mar 10:43:08 10:44:45 12° 296° (WNW) 10:46:21 437.432
YUBILEINY 29 Mar 10:43:52 10:45:24 10° 305° (NW) 10:46:56 435.215
NANOSAT C BR1 29 Mar 10:48:32 10:50:53 15° 64° (ENE) 10:53:14 145.865
PCSat 29 Mar 10:49:15 10:53:42 25° 312° (NW) 10:58:10 145.827
TIGRISAT 29 Mar 10:49:59 10:54:27 43° 261° (W) 10:58:54 435.000
PRISM 29 Mar 10:54:11 10:56:41 16° 267° (W) 10:59:12 437.425
EO-79 29 Mar 10:54:25 10:57:21 18° 66° (ENE) 11:00:19 145.935-145.965
RS-15 29 Mar 10:54:56 11:03:34 24° 99° (E) 11:12:22 29.354- 29.394
UWE-3 29 Mar 10:55:22 10:56:38 11° 298° (WNW) 10:57:54 435.000/436.395/437.385
UNISAT 6 29 Mar 11:01:32 11:05:41 31° 264° (W) 11:09:48 437.425
Oscar 11 29 Mar 11:14:51 11:17:17 15° 295° (WNW) 11:19:45 .
HO-68 29 Mar 11:16:22 11:17:25 10° 312° (NW) 11:18:28 435.675
POLYITAN 1 29 Mar 11:22:21 11:26:18 36° 71° (ENE) 11:30:14 437.675
QB50P2 29 Mar 11:26:59 11:31:03 44° 72° (ENE) 11:35:08 145.880/145.840
DELFI C3 29 Mar 11:33:27 11:36:42 24° 291° (WNW) 11:39:57 145.870
DUCHIFAT 1 29 Mar 11:34:24 11:38:22 40° 72° (ENE) 11:42:22 145.980
BUGSAT 1 29 Mar 11:39:23 11:42:01 16° 65° (ENE) 11:44:39 437.445
AIST 2D 29 Mar 11:49:40 11:53:08 53° 261° (W) 11:56:35 435.315
SPROUT 29 Mar 12:10:07 12:11:37 12° 90° (E) 12:13:09 437.525
LO-87 29 Mar 12:10:53 12:14:32 71° 283° (WNW) 12:18:09 145.935 - 145.965
FO-29 29 Mar 12:15:47 12:21:26 22° 269° (W) 12:26:54 435.910
NANOSAT C BR1 29 Mar 12:22:01 12:26:09 50° 260° (W) 12:30:19 145.865
Oscar 19 29 Mar 12:24:06 12:27:34 19° 63° (ENE) 12:31:03 437.125/150
ESTCUBE 1 29 Mar 12:24:34 12:29:05 71° 102° (ESE) 12:33:35 437.505/2401.250
EO-79 29 Mar 12:28:50 12:32:49 38° 262° (W) 12:36:51 145.935-145.965
50 SAT 29 Mar 12:51:08 12:53:54 21° 96° (E) 12:56:40 437.505
DX 1 29 Mar 12:51:17 12:53:57 16° 93° (E) 12:56:36 434.975-435.025
NO-84 29 Mar 12:58:00 13:01:00 45° 39° (NE) 13:04:14 435.350 FM
POLYITAN 1 29 Mar 12:59:09 13:02:10 19° 267° (W) 13:05:13 437.675
Gurwin Techsat 1B 29 Mar 13:02:50 13:07:05 25° 65° (ENE) 13:11:23 435.225
QB50P2 29 Mar 13:04:30 13:07:03 15° 268° (W) 13:09:36 145.880/145.840
